SL-8 DEB, 1479

Orbit data source: Space-Track

SL-8 DEB, 1479 is space debris in LEO originally from a launch on Mon, 15 Mar 1965 UTC launched from the Tyuratam Missile And Space Complex (TTMTR). Debris objects in space refer to the collection of defunct objects orbiting the Earth. Examples of debris include non-operational satellites, rocket bodies, and fragments generated from explosions, collisions, or faulty payload assembly.

Loading next visibility...
Identifier
1479, 1965-020BD
Orbit
LEO
Country
Flag of CISCIS
Related business
Manufacturer
Unknown
Mission
Spacecraft
Bus & Motor
Unknown
Mass
Unknown
Launch date (UTC)
1965-03-15 (61 years ago)
Launch vehicle
Unknown
Launch site
Tyuratam Missile And Space Complex (TTMTR)
Object type
Payload
Rocket body
Debris
Shape & HBR
Unknown shape, 0.1 m
Radar Cross Section
Small (<0.1 m²)

Expand to show TLE details & history
Last TLE update: 13 hours ago

TLE from 13 hours ago
0 SL-8 DEB
1 01479U 65020BD  25340.60943230  .00000542  00000-0  12864-2 0  9999
2 01479  56.0305 114.4373 0741085 160.0866 203.0666 12.59916644772092
Epoch: 2025-12-06T14:37Z
TLE epoch observation values (Epoch: 2025-12-06T14:37:34.950Z)
Latitude
-0.00008°
Longitude
179.40691°
Altitude
1,962.261 km
Speed
6.673 km/s
True Right ascension
07h 37m 44s
True Declination
0° 00' 00"
Sunlit
Object was in full shadow at epoch
Visualization orbit readout
Latitude
Unknown
Longitude
Unknown
Altitude
Unknown
Speed
Unknown
Apparent Right ascension
Unknown
Apparent Declination
Unknown
Sunlit
N/A
Visualization observer readout
Local Sidereal Time
01:59:17
Azimuth
Unknown
Elevation
Unknown
Doppler factor
Unknown
Orbital elements
Apogee altitude
2,001.252 km
Perigee altitude
844.974 km
Semi-major axis
7,801.25 km
Eccentricity
0.07411
Inclination
56.0305°
RAAN
114.4373°
Arg. of periapsis
160.0866°
True anomaly
200.00282°
Mean anomaly
203.0666°
Eccentric anomaly
201.50973°
Mean motion
3.1499 °/min
Orbital period
114.29 mins
BSTAR
0.0012864
Loading maneuver chart data...
Computing Atmospheric mass density...
Loading historical data...
Loading historical data...
Loading historical data...
Loading historical data...
Loading historical data...
Loading historical data...
Loading historical data...

Documentation

Showing up to 5 results
|